Other Public Products
Issued by NWS Charleston, SC

Home | Current Version | Previous Version | Text Only | Print | Product List | Glossary On
Versions: 1 2 3 4 5 6 7 8 9 10 11 12 13 14 15 16 17 18 19 20 21 22 23 24 25 26 27 28 29 30 31 32 33 34 35 36 37 38 39 40 41 42 43 44 45 46 47 48 49 50
000
FPUS82 KCHS 240912
OPUCHS

TEST...KCHS/KSAV Gateway Observations...TEST
National Weather Service Charleston SC
500 AM EDT TUE APR 24 2018

NOTE: "fair" indicates few or no clouds below 12,000 feet with no
significant weather and/or obstructions to visibility.

SCZ050-WAZ558-NCZ071-TXZ119-213-PAZ071-DCZ001-FLZ074-172-MI076-
NYZ176-178-MAZ016-IL014-TNZ027-NJZ106-GAZ044-MD014-241000-

...Gateway Observations for Charleston International...

CITY           SKY/WX    TMP DP  RH WIND       PRES   REMARKS
Chas Airport   CLOUDY    68  68 100 S5        29.87S FOG
Seattle        CLEAR     56  33  42 NE8       30.22F
Charlotte      CLOUDY    58  57  97 E12       29.95S
Dallas DFW     CLEAR     59  52  77 N3        30.02R
Dallas Love    CLEAR     59  53  80 CALM      30.03R
Philladelphia  MOCLDY    43  34  70 E5        30.38S
Wash National  CLOUDY    55  39  54 E9        30.31S
Baltimore      MOCLDY    51  39  63 E8        30.31F
Miami          FAIR      73  73 100 CALM      29.97R
Detroit        CLOUDY    56  44  64 S12       30.14S HAZE
Newark         FAIR      48  41  76 CALM      30.40S
Laguardia      FAIR      47  42  83 SE5       30.40S
J F K          MOCLDY    43  42  97 E7        30.41F
Boston Logan   FAIR      43  31  62 SW8       30.40F
Ft. Lauderdale FAIR      75  75 100 SW7       29.95S
Chicago O`Hare CLOUDY    50  36  58 NE5       30.06R
Chicago Midway CLOUDY    53  39  59 E3        30.06S
Houston Bush   FAIR      59  56  89 CALM      30.03F
Houston Hobby  FAIR      59  57  93 CALM      30.02F
Nashville      CLOUDY    57  55  93 NE3       29.88S
Atlanta        FOG       59  59 100 W6        29.84R VSB 1

$$

GAZ044-118-TXZ119-213-NCZ071-DCZ001-MDZ014-506-PAZ021-071-NJZ106-
NYZ176-178-MAZ106-OHZ011-021-055-MIZ076-KYZ091-ILZ014-INZ047-
MNZ060-ONZ431-241000-

...Gateway Observations for Savannah International...

CITY           SKY/WX    TMP DP  RH WIND       PRES   REMARKS
Savannah Arpt  FAIR      66  64  93 SW6       29.86S
Atlanta        FOG       59  59 100 W6        29.84R VSB 1
Charlotte      CLOUDY    58  57  97 E12       29.95S
Dallas DFW     CLEAR     59  52  77 N3        30.02R
Houston Bush   FAIR      59  56  89 CALM      30.03F
Wash National  CLOUDY    55  39  54 E9        30.31S
Wash Dulles    CLOUDY    53  39  59 SE8       30.29F
Baltimore      MOCLDY    51  39  63 E8        30.31F
Philadelphia   MOCLDY    43  34  70 E5        30.38S
Newark         FAIR      48  41  76 CALM      30.40S
Laguardia      FAIR      47  42  83 SE5       30.40S
J F K          MOCLDY    43  42  97 E7        30.41F
Boston         FAIR      43  31  62 SW8       30.40F
Pittsburg      CLOUDY    53  45  74 E10       30.17S
Akron          CLOUDY    56  44  64 E9        30.13F
Cleveland      CLOUDY    58  43  57 E8        30.15F
Cincinnati     LGT RAIN  52  49  89 NE12      29.96F
Columbus       CLOUDY    52  49  91 E9        30.04F
Detroit        CLOUDY    56  44  64 S12       30.14S HAZE
Chicago O`Hare CLOUDY    50  36  58 NE5       30.06R
Minneapolis    FAIR      49  40  71 CALM      30.12F
Indianapolis   CLOUDY    52  49  89 NE8       29.98S
Toronto Canada MOCLDY    45  28  53 SW3       30.17S

$$




USA.gov is the U.S. government's official web portal to all federal, state and local government web resources and services.